RH
24 26 28 43 57 56 60 65 72 75 66 56 55 64 74 66 78 86 92 85 88 81 65 73 90 95 97 76 44 42 33 30
32 34 41 35 38 56 64 73 75 59 63 70 72 76 71 83 97 92 90 88 82 81 64 84 96 97 89 67 52 40 35 32
33 36 39 50 38 44 64 66 69 62 93 77 93 97 96 93 76 78 84 80 79 80 90 96 97 98 95 66 59 48 34 31
42 37 36 39 37 50 55 65 59 64 64 59 58 72 76 84 84 82 81 80 83 96 97 94 92 90 79 65 66 39 32 27
46 46 43 42 43 41 44 74 90 92 89 88 86 80 79 80 78 79 84 85 93 98 95 81 76 78 55 44 40 36 31 24
54 58 50 50 48 46 43 45 86 100 90 83 90 91 85 80 81 89 93 94 95 87 80 76 68 62 58 49 37 30 23 25
42 55 64 62 60 57 52 44 43 53 76 78 80 89 88 86 81 93 96 94 87 82 71 65 64 52 47 38 30 24 26 31
46 48 55 59 66 77 76 70 61 50 57 74 93 77 77 87 91 87 84 80 69 62 60 55 48 43 33 24 23 28 32 35
52 61 64 64 65 71 84 87 96 82 70 67 67 77 87 84 72 68 72 68 60 55 50 40 28 24 22 25 30 34 36 39
50 60 62 67 67 69 77 83 90 94 100 100 99 98 90 86 98 94 70 47 44 45 38 35 29 24 26 33 38 41 43 48
59 64 62 58 56 56 60 72 76 77 81 95 98 96 99 80 76 72 80 90 72 65 54 36 34 35 41 46 52 55 56 57
52 54 61 54 46 43 42 50 51 52 65 86 97 98 99 98 88 74 53 70 81 98 90 85 84 64 76 85 78 73 74 72
21 28 30 32 34 33 29 19 29 42 44 64 96 93 89 98 99 98 97 69 56 59 56 67 74 88 96 96 95 92 87 80
28 21 25 32 39 47 30 52 67 70 70 66 88 98 98 97 98 100 97 97 97 96 74 80 86 95 96 95 92 84 79 72
20 20 22 24 40 57 59 58 73 86 86 78 74 89 97 97 100 92 99 99 98 99 99 98 100 100 100 95 87 77 66 56
25 21 27 33 30 48 53 62 69 75 96 96 92 91 92 86 100 100 100 100 98 99 100 98 96 97 95 82 68 54 42 35
31 34 33 32 34 48 51 67 70 86 86 99 99 99 66 60 70 77 77 85 88 91 84 82 81 73 60 55 48 38 31 23
32 28 25 29 29 53 68 76 78 85 91 98 96 97 54 50 50 70 69 77 85 75 65 53 47 43 40 35 30 27 24 23
55 58 47 44 44 53 58 78 95 87 97 99 99 98 86 50 51 62 69 70 60 46 37 33 30 27 27 26 24 25 25 27
72 73 63 65 54 51 52 54 58 75 96 93 93 100 99 42 48 48 48 46 43 38 35 33 33 34 31 30 28 30 29 28
Wind_Speed
24 21 19 20 21 24 26 28 28 32 30 27 29 32 35 37 36 36 30 29 34 37 38 40 42 38 29 24 24 23 22 21
29 24 21 20 20 22 25 25 27 28 24 25 29 35 34 31 36 30 29 31 35 38 40 39 37 28 25 25 25 25 23 23
25 27 26 24 22 23 23 26 28 28 27 31 33 33 24 28 28 29 31 33 38 41 37 42 18 24 24 26 26 26 26 26
22 24 27 28 26 23 23 25 27 29 31 34 36 35 35 32 29 31 33 36 42 41 33 26 23 23 22 25 27 28 28 27
25 25 26 27 27 27 26 27 28 30 32 33 35 37 37 35 37 37 39 42 42 38 35 31 28 29 28 29 30 31 31 30
32 28 29 28 28 29 29 30 32 33 34 36 39 40 40 38 39 40 42 45 44 37 35 33 33 34 34 33 33 33 32 32
33 34 33 32 30 31 31 31 32 33 34 35 38 40 42 40 41 40 42 40 39 36 35 37 37 37 37 37 35 36 34 36
33 34 35 34 33 33 33 35 34 34 36 37 40 41 43 43 42 41 41 41 38 37 38 39 39 39 38 38 38 38 38 39
34 32 32 33 35 35 35 36 38 39 41 42 40 43 49 51 41 40 42 42 41 40 40 40 40 40 40 39 40 41 42 43
40 34 30 31 33 35 35 38 38 38 39 41 45 44 38 41 42 44 41 40 41 41 40 40 42 42 42 41 42 43 45 46
42 39 38 38 39 39 42 42 43 42 42 41 42 43 43 42 44 43 44 45 43 42 41 41 42 42 42 43 45 47 48 48
39 40 37 38 40 42 42 42 44 46 45 42 42 43 44 47 46 44 42 44 47 36 46 50 48 48 48 50 48 48 49 50
37 38 36 38 40 41 41 36 39 40 42 44 42 41 43 47 44 47 47 48 47 50 49 48 47 48 48 50 51 50 50 50
38 34 35 37 39 42 43 37 35 36 36 40 43 43 42 38 39 36 49 51 54 54 53 53 52 50 48 47 46 46 46 46
37 37 37 38 42 44 44 40 36 35 37 41 43 42 41 40 39 41 39 36 35 36 36 38 41 43 44 43 43 43 43 43
39 39 39 41 46 50 47 43 43 42 43 42 40 43 42 39 40 41 38 33 32 31 32 34 35 36 37 38 39 39 39 39
49 50 50 45 47 52 53 49 47 46 45 45 40 41 39 38 37 37 35 31 30 30 29 29 32 34 36 36 36 37 37 37
55 55 55 54 54 53 53 51 51 51 47 49 49 46 41 38 37 35 33 29 29 30 30 30 31 33 35 35 36 36 36 37
59 53 51 52 52 54 53 53 56 54 51 52 55 52 48 40 38 34 32 31 30 29 29 30 30 31 31 32 34 36 36 35
57 55 56 54 54 54 53 57 58 56 55 53 57 58 43 41 36 34 32 31 29 29 30 30 29 28 29 31 33 34 35 36
Wind_Direction
278 279 277 277 272 270 264 262 260 270 270 267 262 258 256 258 261 266 270 283 287 288 289 292 285 282 259 257 265 273 273 273
280 276 272 268 267 261 258 255 259 260 261 263 259 257 255 259 263 268 279 288 285 284 289 286 278 276 252 255 262 271 271 271
276 280 279 275 269 256 253 251 253 255 253 262 252 278 271 270 276 285 286 283 282 281 283 282 258 224 244 253 261 272 272 270
277 277 278 277 276 267 254 248 252 253 256 260 269 275 279 279 279 276 275 275 274 275 280 288 286 284 266 258 262 268 268 267
275 274 274 271 271 274 270 258 253 256 260 262 265 268 273 275 275 276 274 272 273 275 275 278 276 276 274 267 264 266 265 264
276 269 266 268 268 264 265 263 257 254 260 267 268 270 270 267 269 269 268 270 273 270 273 273 271 270 269 267 266 264 264 266
277 272 269 264 263 266 267 266 265 264 260 261 265 268 269 268 269 271 273 274 277 275 275 273 271 269 270 268 267 266 266 267
267 268 269 268 265 262 260 260 261 261 262 261 261 261 264 266 267 270 273 275 275 273 271 270 270 269 268 268 269 269 269 269
267 260 259 260 259 259 262 263 261 259 257 256 259 262 262 261 264 268 269 270 268 265 265 266 266 265 265 266 268 270 271 272
269 265 263 260 260 262 261 264 261 260 260 261 262 262 260 263 262 262 264 265 263 263 263 263 263 262 262 264 267 268 270 271
272 263 263 264 265 262 259 257 258 259 260 258 258 260 259 259 259 262 266 263 262 263 262 262 262 263 264 265 267 269 271 274
268 269 267 268 268 267 265 266 267 267 263 260 258 259 262 260 253 253 257 259 261 251 260 261 259 260 263 265 268 271 275 277
270 266 265 264 269 271 270 271 270 269 269 266 265 261 259 269 266 257 248 251 254 257 263 265 265 266 267 271 273 276 278 280
271 263 259 266 271 271 272 271 269 270 267 268 267 266 265 266 265 251 259 260 260 260 257 258 263 267 271 274 276 278 279 280
264 255 257 258 262 265 268 265 270 267 261 261 263 265 267 267 268 273 273 271 272 275 274 276 273 274 275 275 276 276 279 284
270 261 261 265 262 262 265 261 265 266 263 262 259 260 265 264 266 267 265 266 266 266 268 274 274 271 272 273 277 280 283 284
266 269 268 266 267 263 263 262 258 260 260 262 255 255 259 260 258 259 263 261 265 272 274 275 279 280 280 279 279 282 282 281
267 266 265 266 268 265 265 262 259 260 259 261 260 253 251 254 254 255 258 262 266 270 273 275 277 279 279 281 283 281 280 279
272 269 261 266 264 261 262 263 259 257 259 259 263 263 240 246 249 251 253 256 260 265 269 270 271 274 277 280 282 281 281 281
268 260 251 261 254 257 261 258 260 260 257 260 258 261 235 238 239 243 246 249 254 259 263 267 271 276 278 278 279 279 283 284